When you browse on this site, cookies collect data to enhance your experience and personalize the content and advertising you see.
Visit our Privacy Policy to learn more. By continuing to use the site, you agree to this use of cookies and data.
  • In Hungary
  • List of Countries
  • For 7 days
  • Water Temperature
  • Weather Map
  • News
  • Weather Widgets
  • user-avatar
    Login

    Hourly Weather Bolkowo

    Today, 8 December, Sunday

    Time Temperature Precipitation Wind Pressure Humidity
    00:00 +5°C° 0.1 mm 5 mps 746 mmHg 90%
    01:00 +5°C° 0.1 mm 5 mps 746 mmHg 90%
    02:00 +4°C° 0.4 mm 6 mps 746 mmHg 90%
    03:00 +4°C° 0.4 mm 6 mps 745 mmHg 89%
    04:00 +5°C° 0.4 mm 6 mps 745 mmHg 88%
    05:00 +5°C° 0 mm 6 mps 745 mmHg 88%
    06:00 +4°C° 0 mm 6 mps 745 mmHg 87%
    07:00 +4°C° 0 mm 6 mps 744 mmHg 86%
    08:00 +4°C° 0 mm 7 mps 744 mmHg 84%
    09:00 +4°C° 0 mm 7 mps 743 mmHg 83%
    10:00 +4°C° 0 mm 8 mps 742 mmHg 81%
    11:00 +5°C° 0 mm 8 mps 742 mmHg 80%
    12:00 +5°C° 0 mm 9 mps 741 mmHg 79%
    13:00 +5°C° 0 mm 9 mps 740 mmHg 78%
    14:00 +5°C° 0.5 mm 9 mps 739 mmHg 81%
    15:00 +6°C° 0.5 mm 9 mps 739 mmHg 84%
    16:00 +6°C° 0.5 mm 9 mps 738 mmHg 87%
    17:00 +6°C° 0.2 mm 8 mps 738 mmHg 87%
    18:00 +7°C° 0.2 mm 8 mps 738 mmHg 87%
    19:00 +7°C° 0.2 mm 8 mps 738 mmHg 87%
    20:00 +6°C° 0.1 mm 7 mps 738 mmHg 85%
    21:00 +7°C° 0.1 mm 6 mps 738 mmHg 83%
    22:00 +6°C° 0.1 mm 5 mps 738 mmHg 81%
    23:00 +6°C° 0 mm 5 mps 738 mmHg 82%

    Tomorrow, 9 December, Monday

    Time Temperature Precipitation Wind Pressure Humidity
    00:00 +4°C° 0 mm 6 mps 738 mmHg 83%
    01:00 +4°C° 0 mm 6 mps 738 mmHg 84%
    02:00 +4°C° 0 mm 6 mps 737 mmHg 83%
    03:00 +4°C° 0 mm 6 mps 737 mmHg 83%
    04:00 +4°C° 0 mm 6 mps 737 mmHg 82%
    05:00 +3°C° 0 mm 6 mps 737 mmHg 83%
    06:00 +3°C° 0 mm 6 mps 737 mmHg 84%
    07:00 +3°C° 0 mm 5 mps 738 mmHg 84%
    08:00 +3°C° 0 mm 6 mps 738 mmHg 83%
    09:00 +3°C° 0 mm 6 mps 738 mmHg 82%
    10:00 +3°C° 0 mm 6 mps 738 mmHg 80%
    11:00 +4°C° 0 mm 7 mps 738 mmHg 78%
    12:00 +4°C° 0 mm 7 mps 738 mmHg 76%
    13:00 +4°C° 0 mm 7 mps 737 mmHg 74%
    14:00 +4°C° 0 mm 6 mps 737 mmHg 76%
    15:00 +4°C° 0 mm 6 mps 737 mmHg 77%
    16:00 +4°C° 0 mm 6 mps 737 mmHg 79%
    17:00 +5°C° 0.2 mm 5 mps 737 mmHg 82%
    18:00 +5°C° 0.2 mm 5 mps 737 mmHg 85%
    19:00 +5°C° 0.2 mm 5 mps 738 mmHg 88%
    20:00 +3°C° 0.1 mm 5 mps 738 mmHg 86%
    21:00 +3°C° 0.1 mm 5 mps 738 mmHg 84%
    22:00 +3°C° 0.1 mm 5 mps 739 mmHg 83%
    23:00 +3°C° 0.1 mm 5 mps 739 mmHg 84%

    Day after tomorrow, 10 December, Tuesday

    Time Temperature Precipitation Wind Pressure Humidity
    00:00 +3°C° 0.1 mm 5 mps 740 mmHg 85%
    01:00 +3°C° 0.1 mm 6 mps 741 mmHg 86%
    02:00 +3°C° 0.1 mm 5 mps 742 mmHg 87%
    03:00 +4°C° 0.1 mm 4 mps 743 mmHg 89%
    04:00 +4°C° 0.1 mm 4 mps 743 mmHg 91%
    05:00 +4°C° 0.1 mm 4 mps 745 mmHg 90%
    06:00 +4°C° 0.1 mm 4 mps 746 mmHg 88%
    07:00 +3°C° 0.1 mm 5 mps 747 mmHg 87%
    08:00 +2°C° 0.4 mm 5 mps 749 mmHg 88%
    09:00 +2°C° 0.4 mm 6 mps 750 mmHg 89%
    10:00 +2°C° 0.4 mm 6 mps 752 mmHg 90%
    11:00 +2°C° 0.1 mm 6 mps 753 mmHg 80%
    12:00 +2°C° 0.1 mm 5 mps 754 mmHg 70%
    13:00 +1°C° 0.1 mm 5 mps 755 mmHg 61%
    14:00 +1°C° 0 mm 4 mps 756 mmHg 63%
    15:00 +1°C° 0 mm 3 mps 756 mmHg 66%
    16:00 +1°C° 0 mm 2 mps 757 mmHg 69%
    17:00 +1°C° 0 mm 2 mps 757 mmHg 70%
    18:00 +1°C° 0 mm 2 mps 757 mmHg 70%
    19:00 -1°C° 0 mm 2 mps 758 mmHg 71%
    20:00 -1°C° 0 mm 2 mps 757 mmHg 71%
    21:00 -1°C° 0 mm 3 mps 757 mmHg 72%
    22:00 -1°C° 0 mm 3 mps 757 mmHg 72%
    23:00 -2°C° 0 mm 4 mps 757 mmHg 72%

    11 December, Wednesday

    Time Temperature Precipitation Wind Pressure Humidity
    00:00 -2°C° 0 mm 4 mps 756 mmHg 71%
    01:00 -1°C° 0 mm 5 mps 756 mmHg 70%
    02:00 -2°C° 0 mm 6 mps 755 mmHg 72%
    03:00 -2°C° 0 mm 6 mps 754 mmHg 74%
    04:00 -2°C° 0 mm 7 mps 754 mmHg 76%
    05:00 -1°C° 0 mm 7 mps 753 mmHg 74%
    06:00 -1°C° 0 mm 8 mps 753 mmHg 72%
    07:00 -1°C° 0 mm 8 mps 752 mmHg 69%
    08:00 -1°C° 0 mm 8 mps 752 mmHg 66%
    09:00 -1°C° 0 mm 8 mps 752 mmHg 63%
    10:00 -1°C° 0 mm 8 mps 752 mmHg 60%
    11:00 -1°C° 0 mm 8 mps 751 mmHg 62%
    12:00 0°C° 0 mm 7 mps 751 mmHg 64%
    13:00 +1°C° 0 mm 6 mps 751 mmHg 66%
    14:00 +1°C° 0.1 mm 6 mps 751 mmHg 68%
    15:00 0°C° 0.1 mm 5 mps 750 mmHg 70%
    16:00 0°C° 0.1 mm 5 mps 750 mmHg 72%
    17:00 0°C° 0.1 mm 5 mps 750 mmHg 76%
    18:00 0°C° 0.1 mm 4 mps 750 mmHg 80%
    19:00 0°C° 0.1 mm 4 mps 750 mmHg 84%
    20:00 0°C° 0.2 mm 4 mps 750 mmHg 87%
    21:00 0°C° 0.2 mm 4 mps 750 mmHg 90%
    22:00 0°C° 0.2 mm 4 mps 750 mmHg 92%
    23:00 +1°C° 0.3 mm 3 mps 750 mmHg 93%

    12 December, Thursday

    Time Temperature Precipitation Wind Pressure Humidity
    00:00 +1°C° 0.3 mm 3 mps 749 mmHg 94%
    01:00 +1°C° 0.3 mm 3 mps 749 mmHg 95%
    02:00 +1°C° 0.3 mm 3 mps 749 mmHg 95%
    03:00 +1°C° 0.3 mm 3 mps 748 mmHg 96%
    04:00 +2°C° 0.3 mm 2 mps 748 mmHg 96%
    05:00 +3°C° 0 mm 2 mps 748 mmHg 96%
    06:00 +3°C° 0 mm 2 mps 748 mmHg 96%
    07:00 +3°C° 0 mm 2 mps 748 mmHg 96%
    08:00 +3°C° 0 mm 2 mps 748 mmHg 95%
    09:00 +3°C° 0 mm 2 mps 748 mmHg 95%
    10:00 +3°C° 0 mm 2 mps 748 mmHg 95%
    11:00 +3°C° 0 mm 2 mps 748 mmHg 93%
    12:00 +3°C° 0 mm 2 mps 747 mmHg 92%
    13:00 +4°C° 0 mm 2 mps 747 mmHg 91%
    14:00 +3°C° 0 mm 2 mps 747 mmHg 92%
    15:00 +3°C° 0 mm 2 mps 747 mmHg 93%
    16:00 +3°C° 0 mm 2 mps 747 mmHg 94%
    17:00 +2°C° 0 mm 3 mps 747 mmHg 93%
    18:00 +1°C° 0 mm 3 mps 747 mmHg 93%
    19:00 0°C° 0 mm 4 mps 747 mmHg 92%
    20:00 0°C° 0 mm 4 mps 746 mmHg 93%
    21:00 0°C° 0 mm 4 mps 746 mmHg 93%
    22:00 -1°C° 0 mm 4 mps 746 mmHg 93%
    23:00 -1°C° 0 mm 4 mps 745 mmHg 93%

    13 December, Friday

    Time Temperature Precipitation Wind Pressure Humidity
    00:00 -1°C° 0 mm 4 mps 745 mmHg 93%
    01:00 -1°C° 0 mm 4 mps 744 mmHg 93%
    02:00 -1°C° 0 mm 5 mps 743 mmHg 91%
    03:00 -1°C° 0 mm 5 mps 743 mmHg 90%
    04:00 -2°C° 0 mm 6 mps 742 mmHg 89%
    05:00 -2°C° 0 mm 7 mps 741 mmHg 86%
    06:00 -2°C° 0 mm 7 mps 739 mmHg 83%
    07:00 -2°C° 0 mm 8 mps 738 mmHg 80%
    08:00 -3°C° 0 mm 9 mps 737 mmHg 77%
    09:00 -3°C° 0 mm 9 mps 736 mmHg 73%
    10:00 -2°C° 0 mm 10 mps 735 mmHg 70%
    11:00 -2°C° 0.3 mm 10 mps 734 mmHg 78%
    12:00 -3°C° 0.3 mm 10 mps 732 mmHg 86%
    13:00 -3°C° 0.3 mm 10 mps 731 mmHg 94%
    14:00 -3°C° 0.8 mm 9 mps 731 mmHg 95%
    15:00 -1°C° 0.8 mm 7 mps 731 mmHg 95%
    16:00 -1°C° 0.8 mm 6 mps 731 mmHg 96%
    17:00 +1°C° 0.2 mm 5 mps 731 mmHg 92%
    18:00 +1°C° 0.2 mm 5 mps 731 mmHg 89%
    19:00 +1°C° 0.2 mm 5 mps 732 mmHg 85%
    20:00 +1°C° 0 mm 5 mps 732 mmHg 87%
    21:00 +1°C° 0 mm 5 mps 732 mmHg 88%
    22:00 +1°C° 0 mm 5 mps 733 mmHg 89%
    23:00 +1°C° 0.5 mm 6 mps 733 mmHg 89%
    Show more